Temp
-0 -1 -1 -1 -1 -0 -1 -1 -1 -0 -0 0 1 0 0 0 -0 -0 -1 -1 -1 -0 -0 -0 0 0 -0 -0 -0 -0 0 0 0 0 1 1 1 1 1 0 0 0 1 1 1 1 1 1 2 3 3 4 4 4 4 4 5 5 5 5 5 5 5 5 5 5 5 4 4 4 4 4 4 4
-0 -1 -1 -1 -1 -1 -1 -1 -1 -1 -1 -0 -0 0 0 0 -0 -0 -0 -1 -1 -0 -0 0 0 0 0 -0 -1 -0 -0 0 0 0 1 1 1 1 0 0 -0 -0 0 1 1 1 1 1 1 1 2 3 3 3 3 3 3 4 4 4 4 4 5 5 4 4 4 4 3 3 3 3 3 3
-0 -0 -1 -1 -1 -1 -1 -1 -1 -1 -1 -1 -1 -1 -0 -0 -0 -0 -0 -0 -0 0 -0 0 0 0 1 1 -0 -0 -0 -0 -0 0 0 0 0 0 -0 -0 -0 -1 -0 0 1 1 1 1 0 0 1 1 2 2 2 2 2 3 3 3 4 4 4 4 3 3 3 3 2 3 3 3 2 2
-1 -1 -1 -1 -1 -1 -1 -1 -1 -1 -1 -1 -1 -1 -1 -1 -1 -1 -1 -1 -0 0 0 1 1 1 1 1 0 0 -0 -1 -1 -1 -1 -1 -1 -1 -1 -1 -1 -1 -1 -0 0 1 1 1 1 0 0 0 0 1 1 1 1 1 2 2 2 2 2 2 2 2 1 1 1 1 2 2 2 2
-2 -2 -2 -2 -1 -1 -2 -1 -1 -1 -1 -1 -1 -1 -1 -1 -1 -1 -1 -1 -1 -0 0 1 1 1 1 0 0 0 -1 -1 -1 -2 -1 -1 -1 -1 -1 -1 -1 -1 -1 -1 -0 0 1 1 1 0 -0 -0 0 0 0 0 1 1 1 1 1 1 1 1 1 1 1 1 1 1 1 1 1 2
-2 -2 -2 -2 -2 -2 -2 -2 -2 -2 -1 -1 -2 -2 -2 -2 -1 -1 -2 -2 -1 -1 -1 -0 -0 0 0 -0 0 -0 -1 -1 -1 -2 -2 -2 -2 -1 -1 -1 -1 -1 -1 -1 -1 -1 -0 0 0 0 -0 -0 -0 0 0 0 0 1 1 1 1 1 1 1 1 1 1 1 1 1 1 1 1 2
-2 -2 -2 -2 -2 -2 -2 -2 -2 -2 -2 -2 -2 -2 -2 -2 -2 -1 -2 -2 -2 -2 -1 -1 -1 -1 -0 -0 -0 -0 -0 -1 -1 -2 -2 -2 -2 -2 -2 -1 -1 -1 -1 -1 -1 -1 -1 -0 -0 0 -0 -0 -0 -0 0 0 0 0 0 0 0 -0 0 0 1 1 1 1 1 1 1 1 1 1
-2 -2 -2 -2 -2 -2 -2 -2 -2 -2 -2 -2 -2 -2 -2 -2 -2 -2 -2 -2 -2 -2 -2 -2 -2 -1 -0 -1 -1 -1 -1 -2 -2 -2 -2 -2 -2 -2 -2 -2 -2 -2 -1 -1 -2 -2 -2 -1 -1 -1 -1 -1 -1 -1 -0 -0 -0 -0 -0 -1 -1 -1 -1 -1 -1 -0 -0 0 0 0 1 1 1 1
-3 -3 -3 -2 -2 -2 -3 -3 -3 -3 -3 -2 -2 -2 -2 -2 -2 -2 -2 -2 -2 -2 -2 -2 -2 -2 -1 -1 -1 -1 -2 -3 -3 -3 -3 -3 -3 -3 -3 -2 -2 -2 -2 -2 -2 -2 -2 -2 -2 -1 -1 -1 -1 -1 -1 -1 -1 -1 -1 -1 -1 -1 -1 -1 -1 -1 -1 -1 -1 -0 -0 -0 0 0
-3 -3 -3 -3 -2 -2 -3 -3 -3 -3 -3 -3 -3 -2 -2 -2 -2 -2 -2 -2 -2 -3 -2 -2 -3 -3 -3 -2 -2 -2 -2 -3 -3 -4 -4 -3 -3 -3 -3 -3 -3 -3 -3 -3 -3 -3 -3 -3 -3 -2 -2 -1 -1 -1 -1 -1 -1 -2 -2 -2 -2 -2 -2 -2 -2 -2 -2 -2 -2 -2 -2 -1 -1 -1
-3 -3 -3 -3 -3 -3 -3 -2 -3 -3 -3 -3 -3 -3 -2 -2 -2 -2 -2 -2 -2 -3 -3 -3 -4 -4 -3 -3 -3 -3 -3 -3 -3 -3 -4 -4 -4 -4 -4 -4 -4 -4 -4 -4 -3 -3 -3 -3 -3 -3 -2 -2 -1 -1 -2 -2 -2 -3 -3 -3 -3 -3 -3 -3 -3 -3 -3 -3 -3 -3 -3 -2 -2 -2
-3 -3 -3 -3 -3 -3 -2 -2 -2 -3 -3 -3 -3 -3 -3 -2 -2 -2 -2 -2 -3 -3 -3 -3 -4 -4 -5 -4 -4 -4 -4 -4 -4 -3 -4 -4 -5 -5 -5 -5 -4 -4 -4 -4 -4 -4 -4 -4 -4 -3 -3 -3 -2 -2 -3 -3 -3 -3 -3 -4 -4 -4 -4 -4 -4 -3 -3 -3 -3 -3 -3 -3 -3 -3
-4 -3 -3 -3 -3 -3 -3 -2 -2 -2 -3 -3 -3 -3 -3 -3 -3 -2 -3 -3 -3 -3 -3 -3 -4 -5 -5 -5 -5 -5 -5 -4 -4 -4 -4 -4 -5 -5 -5 -5 -5 -5 -5 -5 -5 -4 -4 -4 -4 -4 -4 -4 -4 -4 -4 -4 -4 -4 -4 -4 -4 -4 -4 -4 -4 -4 -4 -4 -4 -4 -4 -4 -4 -4
-4 -4 -3 -3 -3 -3 -3 -3 -2 -2 -3 -3 -3 -3 -3 -3 -3 -3 -3 -3 -3 -3 -3 -3 -3 -5 -6 -6 -6 -5 -5 -4 -4 -4 -4 -5 -5 -5 -6 -6 -6 -5 -5 -5 -5 -5 -5 -5 -5 -5 -5 -5 -5 -5 -5 -4 -5 -5 -5 -4 -4 -4 -4 -4 -4 -4 -4 -4 -4 -4 -4 -4 -4 -4
-4 -4 -4 -3 -3 -3 -3 -3 -3 -3 -3 -3 -3 -3 -3 -3 -3 -3 -3 -3 -3 -3 -3 -3 -3 -4 -5 -5 -5 -5 -5 -5 -5 -5 -5 -5 -5 -6 -6 -6 -6 -6 -6 -6 -6 -6 -6 -6 -6 -6 -5 -5 -5 -5 -5 -5 -5 -5 -5 -5 -5 -5 -5 -5 -5 -5 -5 -5 -5 -5 -5 -5 -5 -5
-4 -4 -4 -4 -4 -3 -3 -3 -3 -3 -3 -3 -3 -3 -3 -3 -3 -3 -3 -3 -3 -3 -3 -4 -3 -3 -4 -5 -5 -5 -5 -5 -5 -5 -5 -5 -5 -6 -6 -6 -6 -6 -6 -6 -6 -6 -6 -6 -6 -6 -6 -6 -5 -5 -5 -5 -5 -6 -6 -6 -6 -6 -6 -6 -5 -5 -5 -5 -5 -5 -5 -5 -5 -5
-4 -4 -4 -4 -4 -4 -4 -3 -3 -3 -3 -3 -3 -3 -3 -3 -3 -3 -3 -3 -3 -3 -3 -3 -4 -3 -3 -4 -4 -4 -5 -5 -6 -6 -6 -6 -6 -6 -6 -6 -5 -6 -6 -6 -7 -7 -7 -7 -7 -7 -6 -6 -6 -6 -6 -6 -6 -6 -6 -6 -6 -6 -6 -6 -6 -6 -6 -6 -6 -5 -5 -5 -5 -5
-4 -4 -4 -4 -4 -4 -4 -4 -3 -3 -3 -3 -3 -3 -3 -3 -3 -3 -3 -3 -3 -3 -3 -3 -3 -3 -3 -3 -3 -3 -4 -5 -5 -6 -6 -6 -6 -6 -6 -6 -6 -6 -6 -6 -7 -7 -7 -7 -7 -7 -7 -7 -7 -7 -7 -7 -7 -7 -7 -7 -6 -6 -6 -6 -6 -6 -6 -6 -6 -6 -5 -5 -5 -5
-4 -4 -4 -4 -4 -4 -4 -4 -4 -3 -3 -3 -3 -3 -3 -3 -3 -3 -3 -3 -3 -3 -3 -3 -3 -3 -3 -3 -3 -3 -3 -4 -4 -5 -5 -5 -5 -6 -6 -6 -6 -6 -6 -6 -7 -7 -7 -7 -7 -7 -7 -7 -7 -7 -7 -7 -7 -7 -7 -7 -7 -7 -7 -6 -6 -6 -6 -6 -6 -6 -6 -6 -6 -6
-4 -4 -4 -4 -4 -4 -4 -4 -4 -3 -3 -3 -3 -3 -3 -3 -3 -3 -3 -3 -3 -3 -3 -3 -3 -3 -3 -3 -3 -3 -3 -3 -4 -5 -5 -5 -6 -6 -7 -7 -7 -7 -7 -7 -7 -7 -8 -8 -7 -7 -7 -8 -8 -8 -8 -8 -8 -8 -8 -8 -7 -7 -7 -7 -7 -7 -7 -7 -7 -6 -6 -6 -6 -6
-5 -4 -4 -4 -4 -4 -4 -3 -3 -3 -3 -3 -3 -3 -3 -4 -4 -4 -3 -3 -3 -3 -3 -3 -3 -3 -3 -3 -3 -3 -3 -3 -4 -5 -6 -7 -7 -7 -7 -8 -9 -8 -8 -7 -7 -7 -8 -8 -8 -8 -8 -8 -8 -8 -8 -8 -8 -8 -8 -8 -8 -8 -8 -8 -8 -7 -7 -7 -7 -7 -7 -7 -7 -7
-5 -5 -4 -4 -4 -4 -4 -3 -3 -3 -3 -3 -4 -4 -4 -4 -4 -4 -4 -3 -3 -3 -3 -3 -3 -3 -3 -3 -4 -4 -4 -4 -4 -5 -6 -6 -7 -7 -7 -8 -9 -9 -9 -8 -7 -8 -8 -8 -9 -9 -9 -9 -9 -8 -8 -8 -8 -8 -8 -8 -9 -9 -8 -9 -8 -8 -8 -8 -8 -8 -8 -8 -8 -8
-6 -6 -5 -5 -4 -4 -4 -3 -4 -4 -3 -3 -4 -4 -4 -4 -4 -4 -4 -4 -4 -4 -4 -4 -4 -4 -4 -4 -4 -4 -4 -5 -5 -5 -5 -6 -7 -7 -7 -8 -9 -10 -9 -8 -8 -8 -9 -9 -9 -9 -10 -10 -9 -9 -9 -9 -8 -8 -8 -8 -8 -8 -9 -9 -9 -9 -9 -9 -9 -9 -9 -9 -9 -9
-6 -6 -6 -5 -5 -4 -4 -3 -4 -4 -3 -3 -3 -4 -4 -4 -4 -4 -4 -4 -4 -4 -4 -4 -4 -4 -4 -4 -5 -5 -5 -5 -5 -5 -6 -6 -6 -7 -7 -8 -9 -9 -9 -9 -8 -8 -9 -9 -10 -10 -10 -10 -10 -10 -10 -9 -9 -9 -9 -9 -8 -8 -9 -9 -10 -9 -9 -9 -9 -9 -9 -9 -9 -10
-6 -6 -6 -6 -5 -5 -4 -3 -3 -3 -3 -3 -3 -3 -4 -4 -3 -3 -4 -4 -4 -4 -4 -4 -4 -4 -5 -5 -5 -5 -5 -6 -6 -6 -6 -6 -6 -7 -7 -8 -9 -9 -9 -8 -8 -9 -9 -10 -10 -10 -10 -11 -11 -11 -10 -10 -10 -10 -10 -10 -9 -9 -9 -10 -10 -9 -9 -9 -9 -9 -9 -9 -9 -10
-6 -6 -6 -6 -5 -5 -4 -4 -3 -3 -3 -3 -3 -3 -3 -3 -3 -3 -3 -4 -4 -4 -4 -5 -5 -5 -5 -5 -6 -6 -6 -6 -6 -7 -7 -7 -7 -7 -7 -7 -8 -8 -9 -9 -9 -9 -10 -10 -10 -10 -11 -12 -12 -12 -12 -11 -10 -10 -10 -10 -10 -10 -10 -10 -10 -10 -10 -10 -9 -9 -9 -9 -9 -10
-5 -6 -6 -6 -6 -5 -5 -4 -3 -3 -3 -3 -3 -3 -3 -3 -3 -3 -4 -4 -4 -5 -5 -5 -5 -6 -6 -6 -6 -6 -6 -6 -7 -7 -7 -7 -7 -7 -7 -7 -7 -8 -8 -9 -9 -9 -9 -10 -10 -10 -11 -12 -13 -13 -13 -12 -11 -10 -10 -10 -10 -10 -10 -10 -10 -10 -10 -10 -10 -10 -10 -10 -10 -10
-6 -6 -6 -6 -6 -6 -5 -4 -4 -3 -3 -3 -3 -3 -3 -3 -3 -3 -4 -4 -5 -5 -6 -6 -7 -7 -7 -7 -7 -7 -7 -7 -7 -7 -8 -8 -8 -8 -8 -8 -8 -9 -9 -9 -9 -10 -10 -10 -10 -11 -11 -12 -13 -13 -13 -12 -12 -11 -11 -11 -11 -11 -11 -11 -11 -11 -11 -11 -11 -11 -11 -11 -10 -10
-6 -6 -5 -6 -6 -6 -5 -4 -4 -4 -3 -3 -3 -3 -3 -3 -4 -4 -5 -5 -6 -7 -7 -7 -8 -8 -8 -8 -8 -8 -7 -8 -8 -9 -9 -9 -9 -9 -9 -9 -9 -9 -10 -10 -10 -10 -11 -11 -11 -11 -12 -12 -12 -13 -13 -13 -13 -13 -12 -12 -12 -11 -11 -11 -12 -11 -11 -12 -12 -12 -12 -12 -12 -12
-6 -6 -6 -6 -6 -5 -5 -5 -4 -4 -3 -3 -3 -3 -3 -4 -4 -5 -5 -6 -7 -7 -8 -8 -9 -9 -9 -9 -9 -9 -9 -9 -9 -9 -10 -10 -10 -10 -10 -10 -11 -11 -11 -11 -11 -11 -12 -11 -12 -12 -12 -13 -13 -13 -13 -14 -14 -13 -13 -13 -13 -12 -12 -12 -12 -12 -12 -12 -12 -13 -13 -13 -13 -13
-6 -6 -6 -6 -5 -5 -5 -5 -4 -4 -4 -4 -4 -4 -4 -5 -5 -5 -6 -6 -7 -8 -9 -9 -10 -10 -10 -10 -10 -10 -10 -10 -10 -10 -10 -10 -11 -11 -11 -11 -12 -12 -12 -12 -12 -12 -12 -12 -12 -13 -13 -13 -14 -14 -14 -15 -15 -14 -14 -14 -14 -14 -13 -13 -13 -13 -13 -13 -13 -13 -13 -13 -13 -13
-7 -6 -6 -6 -6 -6 -6 -5 -5 -5 -5 -5 -6 -6 -6 -6 -7 -7 -7 -8 -8 -9 -9 -10 -11 -11 -12 -12 -11 -11 -11 -11 -11 -10 -10 -10 -11 -11 -11 -12 -13 -13 -13 -13 -13 -13 -13 -13 -13 -13 -13 -14 -14 -14 -15 -15 -15 -14 -14 -15 -15 -14 -13 -13 -13 -13 -13 -14 -14 -14 -14 -13 -13 -13
-7 -7 -7 -7 -7 -7 -7 -7 -7 -7 -7 -8 -8 -8 -8 -8 -8 -8 -8 -8 -9 -10 -10 -11 -12 -12 -12 -13 -12 -12 -12 -12 -11 -11 -11 -10 -11 -11 -12 -12 -12 -13 -13 -13 -13 -13 -13 -14 -14 -14 -14 -15 -15 -15 -15 -15 -15 -14 -14 -14 -15 -14 -13 -13 -14 -14 -14 -15 -15 -15 -15 -15 -14 -13
-7 -8 -9 -9 -9 -9 -9 -9 -9 -9 -9 -9 -9 -9 -9 -9 -9 -9 -9 -9 -10 -10 -10 -11 -12 -12 -13 -13 -13 -13 -13 -12 -12 -12 -11 -10 -11 -11 -12 -13 -13 -13 -13 -13 -14 -14 -14 -14 -15 -15 -15 -15 -15 -15 -15 -15 -14 -14 -14 -14 -15 -14 -13 -13 -14 -14 -15 -15 -16 -16 -16 -16 -15 -14
-9 -10 -10 -11 -11 -10 -10 -11 -11 -10 -10 -10 -11 -11 -10 -10 -10 -9 -10 -10 -10 -11 -11 -12 -12 -13 -13 -13 -13 -13 -12 -12 -12 -12 -12 -11 -11 -12 -12 -13 -13 -13 -13 -14 -14 -14 -14 -15 -15 -15 -16 -16 -16 -15 -15 -14 -14 -14 -14 -14 -14 -14 -14 -14 -14 -15 -16 -16 -17 -17 -18 -18 -17 -15
-11 -11 -11 -12 -12 -11 -11 -12 -11 -11 -11 -11 -11 -11 -11 -11 -11 -10 -10 -11 -11 -11 -12 -12 -13 -13 -13 -13 -13 -13 -12 -12 -13 -13 -13 -13 -13 -13 -13 -13 -13 -13 -14 -14 -14 -14 -15 -15 -15 -16 -17 -17 -17 -15 -15 -14 -13 -14 -15 -14 -14 -14 -14 -14 -15 -16 -16 -17 -17 -18 -18 -18 -17 -16
-11 -11 -11 -12 -12 -12 -12 -12 -12 -12 -12 -12 -12 -11 -11 -12 -12 -11 -11 -11 -11 -11 -12 -12 -13 -13 -13 -13 -13 -13 -13 -12 -13 -13 -14 -13 -13 -14 -14 -14 -14 -14 -14 -14 -14 -15 -15 -15 -16 -16 -17 -16 -16 -15 -15 -14 -14 -14 -15 -15 -14 -15 -15 -16 -16 -17 -16 -16 -17 -17 -18 -18 -18 -17
-11 -11 -12 -12 -12 -12 -12 -12 -12 -12 -12 -12 -12 -12 -12 -12 -12 -12 -12 -12 -12 -12 -12 -13 -13 -13 -13 -13 -13 -13 -14 -13 -13 -14 -14 -14 -14 -15 -15 -15 -15 -14 -14 -14 -15 -15 -15 -16 -16 -16 -17 -16 -16 -15 -15 -15 -15 -15 -15 -15 -15 -16 -16 -17 -17 -17 -17 -17 -17 -17 -17 -18 -18 -17
-10 -11 -11 -12 -12 -12 -12 -12 -12 -12 -12 -12 -11 -11 -11 -12 -12 -12 -12 -12 -12 -12 -12 -13 -13 -13 -13 -13 -12 -13 -13 -14 -14 -14 -15 -14 -14 -15 -15 -15 -15 -14 -15 -15 -15 -15 -16 -16 -16 -16 -16 -16 -16 -15 -15 -16 -16 -16 -16 -16 -17 -17 -17 -17 -17 -18 -17 -17 -17 -17 -18 -18 -18 -17
-10 -11 -11 -11 -12 -12 -12 -12 -12 -12 -12 -11 -11 -10 -10 -11 -12 -12 -12 -12 -13 -13 -13 -13 -13 -13 -13 -13 -13 -13 -13 -13 -14 -14 -14 -14 -14 -14 -14 -14 -14 -14 -15 -15 -16 -16 -16 -15 -14 -14 -15 -15 -15 -16 -16 -17 -17 -17 -16 -16 -16 -16 -16 -17 -17 -18 -18 -18 -18 -18 -18 -19 -18 -18
-10 -11 -11 -11 -11 -12 -12 -12 -12 -12 -11 -11 -10 -10 -10 -11 -11 -12 -12 -12 -13 -13 -13 -13 -13 -13 -13 -13 -13 -13 -14 -14 -14 -14 -14 -15 -15 -15 -14 -14 -15 -15 -16 -16 -16 -15 -14 -14 -14 -14 -15 -16 -17 -17 -18 -18 -18 -17 -17 -16 -15 -16 -17 -17 -17 -18 -18 -18 -18 -19 -19 -19 -19 -19
-10 -10 -11 -11 -11 -11 -11 -11 -11 -11 -11 -10 -10 -10 -11 -11 -12 -12 -13 -13 -13 -13 -13 -13 -13 -13 -13 -13 -13 -13 -13 -14 -15 -15 -15 -15 -15 -15 -15 -15 -15 -15 -16 -16 -15 -14 -13 -14 -15 -15 -16 -17 -18 -19 -19 -19 -19 -18 -18 -17 -16 -16 -16 -17 -17 -18 -18 -18 -18 -19 -19 -19 -20 -20
-10 -10 -11 -11 -11 -11 -11 -11 -11 -11 -10 -10 -10 -10 -11 -11 -12 -13 -13 -13 -13 -13 -13 -13 -13 -13 -13 -13 -13 -13 -13 -13 -14 -14 -14 -14 -15 -15 -15 -15 -15 -15 -15 -14 -14 -14 -15 -15 -16 -16 -17 -18 -18 -19 -20 -20 -20 -19 -19 -18 -17 -16 -16 -16 -17 -17 -18 -18 -18 -18 -19 -19 -19 -19
-10 -10 -10 -11 -11 -11 -11 -11 -11 -11 -10 -10 -10 -11 -11 -11 -12 -12 -13 -13 -13 -13 -13 -13 -13 -13 -13 -13 -13 -14 -14 -13 -13 -13 -14 -14 -14 -14 -14 -14 -14 -15 -15 -15 -15 -16 -16 -16 -17 -17 -18 -18 -19 -19 -20 -20 -20 -20 -20 -19 -19 -19 -18 -17 -17 -18 -18 -18 -18 -18 -18 -18 -19 -18
-10 -10 -10 -10 -11 -11 -11 -11 -11 -11 -11 -11 -11 -11 -11 -12 -12 -12 -13 -13 -13 -13 -13 -13 -13 -13 -13 -13 -14 -14 -14 -14 -13 -13 -13 -13 -13 -14 -14 -14 -15 -15 -15 -16 -16 -17 -17 -17 -18 -18 -18 -19 -19 -19 -20 -20 -21 -21 -21 -21 -21 -21 -20 -19 -19 -20 -20 -19 -17 -17 -18 -18 -18 -18
Height
714 715 717 718 720 721 722 724 725 727 728 729 730 732 734 737 739 741 742 741 740 740 743 744 744 746 748 750 752 753 755 756 759 760 761 763 764 767 770 773 776 779 782 784 785 786 787 789 790 792 795 797 799 801 803 805 806 808 809 811 812 813 814 816 818 820 822 824 825 826 827 828 829 830
711 712 714 716 717 718 720 721 723 725 726 727 728 729 731 734 735 737 738 736 735 737 740 740 741 743 745 747 748 750 751 753 755 756 757 758 760 763 767 770 773 776 779 781 783 784 785 787 788 789 791 794 796 798 800 802 804 805 807 808 809 810 811 813 815 818 820 821 822 823 824 826 827 828
708 709 711 712 714 715 717 718 719 721 723 725 726 728 729 731 732 734 735 734 731 733 736 736 738 741 742 744 745 746 748 749 751 752 754 755 757 760 763 766 770 773 776 778 780 782 784 785 786 787 788 790 793 795 797 799 800 802 804 805 807 808 809 811 813 815 816 818 820 821 822 824 825 825
705 706 707 709 711 712 713 715 716 717 719 721 723 725 727 728 730 731 733 732 730 730 732 734 736 738 740 741 742 743 744 746 748 750 751 753 756 758 760 763 766 769 772 775 778 780 781 783 784 785 786 788 790 792 794 796 797 799 801 802 804 806 808 810 811 813 814 816 817 819 820 821 822 823
703 704 704 706 707 709 710 712 713 715 716 718 719 722 724 725 727 729 730 730 728 728 730 732 733 735 737 738 739 740 742 743 745 747 749 751 753 755 757 759 762 765 769 772 774 777 779 780 782 783 784 785 787 789 791 793 795 797 798 800 802 804 807 809 810 812 813 814 815 816 817 819 819 820
700 701 701 702 703 705 707 708 710 712 713 715 716 718 720 721 724 725 727 728 727 727 728 729 731 733 734 735 736 738 739 740 742 744 746 748 750 752 754 756 759 762 765 768 771 774 776 778 780 781 782 783 785 787 789 791 792 794 796 798 800 803 805 807 809 810 811 812 813 813 814 815 816 817
697 697 698 699 700 702 704 705 707 709 710 712 713 714 716 717 719 721 723 724 724 724 725 726 727 729 731 732 734 735 737 738 740 741 743 745 747 749 751 754 755 758 762 765 767 770 773 775 777 779 780 781 783 784 786 788 790 792 794 796 798 800 802 804 806 807 808 809 809 810 811 812 813 814
693 694 694 695 697 700 701 702 704 706 707 709 710 711 712 714 715 717 719 721 721 722 722 723 724 726 727 729 731 733 735 737 738 739 741 743 744 747 749 751 753 755 758 762 764 767 769 772 774 776 778 779 781 782 784 785 788 789 791 793 795 797 799 801 802 803 804 805 806 807 808 809 809 810
689 690 691 692 694 696 697 699 701 702 704 706 707 708 709 710 712 713 715 717 719 719 720 721 722 723 725 727 729 731 733 735 737 738 740 741 742 745 747 749 750 752 755 759 761 764 766 768 771 773 775 777 779 780 782 783 785 786 788 789 791 793 795 797 798 800 801 802 803 803 804 805 806 807
686 687 688 690 691 693 694 695 697 699 700 702 704 705 705 707 708 710 712 714 716 717 717 718 720 721 722 724 726 728 730 733 735 736 738 739 740 742 743 745 748 750 752 755 758 761 763 765 767 770 772 774 776 778 780 781 783 784 785 786 788 789 791 793 795 796 797 798 799 799 800 801 802 803
683 684 685 686 688 689 690 691 693 695 697 698 700 701 702 703 705 706 708 710 712 714 715 716 717 718 720 722 723 725 728 731 733 734 736 737 737 738 740 742 745 748 750 753 755 758 760 762 764 766 769 771 773 776 777 779 781 781 782 783 784 786 787 789 790 792 793 794 795 795 796 797 798 799
679 680 681 682 683 685 686 687 689 691 692 694 695 697 699 700 701 702 704 706 708 710 712 713 715 716 718 720 722 724 726 729 730 731 732 733 734 736 738 740 742 745 747 750 752 755 757 759 760 762 765 767 770 772 775 777 778 779 780 781 781 782 783 785 786 787 789 790 790 791 792 793 794 795
675 676 677 678 679 681 682 683 685 686 688 690 691 692 695 697 697 698 700 702 704 707 709 710 712 714 715 717 719 721 722 723 725 727 730 731 732 734 736 737 739 742 744 747 749 751 753 755 757 759 761 763 766 769 771 773 775 776 777 778 778 779 780 781 783 784 785 786 786 787 788 788 790 791
671 672 673 674 675 676 678 679 681 682 684 685 686 688 690 692 694 695 696 698 700 702 705 706 708 710 712 713 715 716 717 719 722 725 727 729 730 733 735 736 737 739 741 744 745 747 750 752 754 756 757 759 762 765 767 769 770 772 773 775 776 777 778 779 780 781 782 782 783 783 783 784 785 786
668 668 669 670 671 672 674 675 677 678 680 681 683 684 686 688 690 691 692 693 696 698 700 702 704 706 707 709 711 712 715 717 720 722 724 726 728 731 732 733 734 735 737 740 742 744 747 749 751 753 754 756 758 760 762 765 767 768 770 771 773 774 775 776 777 778 778 779 779 779 779 780 781 782
664 664 665 666 667 668 670 671 673 674 676 678 679 681 683 684 685 687 689 690 692 694 696 698 700 701 702 705 707 709 712 715 718 720 722 724 726 727 728 729 729 731 734 738 740 742 744 746 748 749 750 752 754 756 758 761 763 765 767 768 770 771 772 774 774 775 775 775 775 775 775 776 777 778
659 660 661 661 662 664 665 667 668 670 671 673 675 677 679 680 682 683 685 687 688 690 692 693 695 696 698 700 702 704 708 712 715 718 720 721 723 724 725 725 727 729 732 735 738 739 741 744 745 745 747 749 751 753 755 757 760 762 764 766 767 768 769 771 771 772 772 772 772 772 772 772 773 774
654 655 656 657 657 659 660 662 664 665 667 669 671 673 675 676 677 679 681 683 684 686 687 688 689 691 694 697 698 701 705 709 711 713 715 718 720 722 722 724 727 729 730 733 736 737 738 740 742 742 744 747 748 750 752 754 757 759 761 763 764 765 767 767 768 768 768 768 768 769 769 769 769 770
649 649 650 651 652 653 655 657 659 661 663 665 667 669 670 671 673 675 676 678 680 682 684 685 686 688 691 693 696 698 701 704 707 709 712 715 717 720 721 723 725 727 728 731 734 735 735 737 739 740 742 744 746 747 749 751 754 756 758 760 761 763 763 764 764 765 765 765 765 766 766 766 766 766
644 644 645 645 646 648 649 651 654 656 659 661 663 664 666 668 669 670 672 675 677 679 681 682 684 686 689 691 694 696 698 700 703 707 710 713 715 717 720 721 722 724 726 728 730 732 733 735 737 738 740 742 744 745 747 748 750 753 755 757 758 759 760 760 760 761 761 761 761 762 762 763 763 763
640 640 640 640 641 643 644 646 649 652 654 656 658 660 662 664 665 666 669 672 674 676 678 680 681 684 686 689 691 693 695 697 700 704 706 709 711 714 717 719 720 721 723 725 728 730 731 733 735 737 739 741 742 743 745 746 748 750 752 753 754 755 756 756 756 756 757 757 758 758 759 759 759 759
636 636 636 637 637 638 639 641 644 647 650 652 653 656 658 660 661 663 666 669 671 673 675 677 678 680 683 685 688 690 692 695 697 699 701 704 708 711 713 715 718 720 721 722 725 727 729 731 733 736 738 739 740 741 742 744 746 747 747 748 749 750 751 751 752 752 752 753 754 754 755 755 755 755
631 632 632 633 633 633 634 636 639 642 645 647 649 651 654 655 657 659 662 665 667 669 671 673 675 677 679 682 685 687 689 691 693 695 697 700 704 706 709 712 716 718 718 719 722 725 726 728 731 733 736 738 737 738 740 741 742 743 743 744 744 745 746 747 747 747 747 748 749 750 750 751 751 750
626 626 627 627 628 629 630 632 635 637 640 642 645 647 650 651 653 656 658 660 663 665 667 669 672 674 676 679 682 684 686 688 689 692 694 697 699 702 705 708 711 712 713 715 718 721 723 726 729 731 733 735 735 735 736 737 738 739 739 739 740 741 741 742 743 743 744 744 744 745 746 747 747 747
621 621 622 623 623 624 626 627 630 633 635 638 641 643 644 646 649 652 655 657 660 662 664 666 668 671 674 676 678 681 683 685 686 689 692 694 696 699 702 704 707 709 710 713 716 718 721 723 726 729 731 733 733 733 735 735 735 736 736 736 737 737 737 738 739 740 740 740 740 741 742 742 743 743
615 615 617 618 619 621 622 623 625 628 631 634 636 639 641 644 647 649 651 654 656 658 660 663 665 667 670 672 675 677 680 682 684 686 689 692 694 697 699 701 703 705 707 710 713 716 718 721 723 725 728 729 731 732 733 733 733 733 733 734 734 734 734 734 735 735 736 736 737 737 738 738 739 739
610 611 613 615 616 618 619 620 622 624 627 630 633 635 638 641 644 646 648 651 653 655 657 660 661 663 666 668 671 673 676 678 681 684 687 689 692 694 696 698 700 702 705 708 711 714 716 718 720 722 724 726 728 730 731 731 730 730 730 730 731 731 731 731 731 732 733 733 733 733 733 734 734 735
608 609 611 613 614 616 617 618 619 621 624 627 630 632 635 638 640 643 645 647 650 652 655 657 659 661 663 665 667 669 672 675 678 681 684 687 689 692 694 697 699 702 705 708 710 713 715 717 718 720 722 724 726 727 728 728 727 727 727 727 727 728 728 728 728 728 729 729 729 729 729 729 730 731
608 609 611 612 613 614 616 617 618 620 622 625 627 630 633 635 637 639 642 645 647 650 652 655 657 659 661 663 665 667 670 673 676 679 683 686 689 691 694 696 699 702 704 707 709 711 714 715 717 719 720 722 723 724 725 725 725 725 725 725 724 725 725 725 725 725 726 725 725 725 726 726 726 727
609 609 610 611 611 613 614 616 617 619 621 624 626 628 630 632 634 637 639 642 645 648 650 653 655 658 660 662 664 666 669 672 675 678 682 685 688 691 693 696 699 701 704 706 708 710 712 714 715 717 718 720 721 722 723 723 722 722 722 722 722 722 721 721 722 722 722 722 722 722 722 722 723 723
609 609 609 609 609 611 612 614 617 619 620 623 625 626 629 631 633 636 638 641 643 646 649 652 654 657 659 661 664 666 669 671 675 678 680 684 687 690 693 695 698 700 703 705 707 709 711 712 713 715 716 717 718 719 720 721 720 719 719 719 719 719 719 719 719 720 720 720 719 719 719 719 719 720
610 610 609 609 609 610 612 614 616 618 620 622 624 627 629 632 634 636 638 641 644 646 648 651 654 657 659 662 664 666 668 671 674 677 680 683 686 689 692 694 697 699 701 703 705 707 709 710 711 712 713 715 716 717 718 718 717 716 716 716 717 716 716 716 717 717 718 717 716 715 716 716 716 716
613 612 611 611 612 612 613 615 617 619 621 624 626 629 631 633 635 637 639 641 644 646 648 651 654 657 659 662 664 666 669 671 674 677 680 682 685 688 690 693 695 697 699 701 703 705 707 708 709 710 712 713 714 715 715 714 713 712 713 714 714 713 713 713 714 715 715 715 714 713 713 712 713 713
615 615 615 615 616 616 616 618 620 622 624 626 629 631 633 634 636 638 640 642 644 646 648 651 654 656 659 662 664 666 668 671 674 677 679 682 684 686 689 691 693 695 697 700 701 703 705 706 707 708 710 711 712 712 711 711 710 709 710 711 711 710 710 710 712 712 712 712 712 710 709 708 708 709
618 618 619 619 620 620 621 622 624 625 627 628 631 633 634 636 638 639 641 643 644 646 649 651 654 656 658 661 663 665 668 671 673 676 679 681 683 685 687 689 692 694 696 698 700 701 703 704 705 707 709 710 710 709 708 707 707 707 707 707 707 707 707 708 709 709 709 709 709 708 705 703 703 704
622 622 622 623 624 624 625 626 627 628 629 631 632 634 636 638 640 641 642 644 646 647 649 652 654 657 659 661 663 665 667 670 673 675 678 680 682 684 686 688 690 693 695 696 698 700 701 702 704 706 707 709 709 707 705 704 704 704 705 705 705 705 705 705 705 705 704 704 704 703 701 698 697 698
624 625 625 626 627 627 628 629 630 631 632 634 635 636 637 639 641 643 644 646 647 649 650 652 655 657 659 661 663 665 668 669 672 674 677 679 681 683 686 688 690 691 693 695 697 698 700 701 702 704 705 707 707 705 703 702 702 703 703 703 702 702 702 702 701 700 700 699 698 697 696 693 691 692
626 627 628 628 629 630 630 631 632 633 634 636 636 638 639 641 642 644 645 647 648 650 651 653 655 657 659 661 663 665 667 670 672 674 676 678 680 682 684 686 688 690 692 694 696 697 698 699 700 701 702 703 704 703 701 700 700 700 701 701 700 700 700 700 699 697 696 695 694 693 692 689 687 687
628 629 630 630 631 631 632 633 634 635 636 637 638 639 641 642 644 645 646 648 649 650 652 654 655 657 659 661 662 664 666 669 671 672 674 676 678 680 682 684 687 689 691 692 694 695 696 697 697 697 698 699 699 699 698 698 697 697 698 699 699 698 698 698 697 695 694 693 691 690 688 686 684 683
631 631 631 632 633 633 634 635 636 636 637 639 640 641 642 643 644 646 647 648 649 651 652 654 655 657 659 660 662 664 665 667 669 671 673 675 677 679 681 683 685 687 689 690 692 692 693 693 693 694 695 696 696 696 696 696 694 693 694 695 696 696 695 695 694 693 690 689 689 687 685 683 681 679
633 633 633 634 634 635 635 636 637 638 639 640 641 642 643 644 645 646 647 649 650 651 653 654 656 657 659 660 662 663 665 667 669 670 672 674 676 678 680 682 684 685 687 688 689 689 689 690 691 692 693 694 694 695 695 694 691 689 689 690 692 692 692 691 691 690 687 686 687 685 682 680 678 675
634 635 635 635 636 636 637 638 639 639 640 641 642 643 644 645 646 647 648 650 651 652 653 654 656 657 659 660 661 663 664 666 668 670 671 673 675 677 679 680 681 683 684 684 685 685 687 688 689 690 690 691 692 693 692 690 688 686 685 685 686 687 688 687 686 686 684 683 683 682 678 677 677 673
636 636 636 637 637 638 638 639 640 641 642 643 643 644 645 646 647 648 649 650 651 652 653 654 655 657 658 659 661 662 663 665 666 668 670 671 673 675 676 677 679 680 680 681 682 683 685 686 687 687 688 688 689 689 688 686 685 683 681 681 681 681 681 681 681 681 680 679 678 678 676 675 674 670
637 638 638 638 638 639 639 640 641 642 643 643 644 645 646 646 647 648 648 649 650 651 652 654 655 656 657 658 660 661 662 664 665 667 668 670 671 672 674 675 676 677 678 679 680 681 682 683 684 685 685 685 685 685 684 682 682 681 680 679 679 677 677 676 676 675 674 673 672 672 671 671 670 667
639 639 639 639 640 640 640 641 642 642 643 644 644 645 646 646 647 647 648 649 650 651 652 653 654 655 656 657 659 660 661 663 665 666 667 668 669 671 672 673 674 675 675 676 678 679 680 681 682 681 681 681 682 681 681 680 680 679 678 677 676 674 673 672 671 669 667 665 665 666 666 665 664 663
Wind_Speed
20 19 19 19 20 21 21 22 23 23 25 25 25 23 19 13 6 4 6 5 7 15 20 21 25 30 36 39 40 40 41 41 40 38 37 37 37 36 35 34 32 30 30 30 30 30 30 33 37 40 41 40 39 38 38 38 39 39 37 31 26 25 25 24 23 22 23 23 22 22 21 22 22 21
20 20 19 19 19 20 20 22 24 24 24 24 25 25 24 21 13 7 5 7 9 12 18 24 24 25 31 35 37 39 40 40 40 38 38 38 38 37 35 35 34 31 29 30 30 30 29 29 30 33 37 38 39 38 37 37 38 39 39 36 31 27 27 26 25 24 25 25 24 25 24 22 23 22
21 21 21 20 20 21 21 22 23 25 25 25 25 25 25 24 21 16 9 6 11 15 18 23 26 25 27 30 34 37 38 39 38 38 38 37 37 36 35 35 35 33 30 29 30 30 29 28 27 27 30 32 33 33 32 32 35 37 37 37 34 30 29 29 28 26 26 26 25 26 27 25 24 23
21 21 21 21 22 22 22 23 23 24 25 26 26 26 25 24 24 22 14 7 9 16 19 22 24 25 27 28 31 34 36 36 36 36 37 37 36 35 35 34 34 34 33 30 29 31 30 30 28 27 26 26 27 27 27 27 29 31 34 36 35 33 31 29 29 28 27 25 24 23 25 26 24 23
21 21 21 22 23 23 23 24 24 24 25 26 26 27 26 25 24 24 18 10 9 12 16 19 21 23 26 28 30 32 33 33 34 34 34 35 34 35 35 34 33 34 35 33 30 30 30 30 30 28 27 26 25 25 25 25 25 25 27 29 30 29 28 26 26 26 25 25 25 24 25 25 24 24
22 21 22 22 23 23 23 24 25 25 26 25 25 26 26 25 25 26 22 16 11 10 13 18 19 20 25 28 29 31 32 33 33 32 32 34 34 35 35 34 34 34 35 35 33 30 29 30 30 29 28 27 27 26 26 26 25 25 25 25 26 26 26 26 26 26 26 26 26 26 26 26 25 25
23 23 22 22 22 22 22 23 25 25 26 25 25 26 26 26 26 27 26 22 16 12 13 17 20 20 24 27 28 30 31 32 31 31 32 33 34 34 34 34 35 34 33 36 36 31 28 28 30 30 29 28 28 28 27 28 27 27 27 27 27 28 27 28 28 27 27 27 26 26 26 26 26 26
25 24 24 23 23 22 22 23 23 25 26 27 27 26 26 26 27 27 27 26 22 17 13 15 20 22 24 26 27 27 28 29 29 30 30 31 32 34 34 34 35 35 34 35 36 34 31 29 29 29 29 29 29 28 28 28 28 28 28 28 28 28 28 27 27 27 27 27 26 26 26 27 27 27
26 25 25 25 24 24 23 23 23 24 26 27 27 28 27 26 26 26 25 26 25 21 16 14 17 21 23 24 25 26 26 25 25 26 27 29 31 32 33 34 35 35 34 33 34 35 34 32 29 28 29 30 30 29 28 29 29 29 30 29 28 28 27 27 26 27 27 27 27 27 26 26 26 27
27 27 27 27 27 26 26 25 24 23 24 26 27 28 28 27 26 25 24 24 24 23 20 16 15 18 21 21 22 24 26 26 24 23 24 26 29 30 31 33 34 35 33 32 32 33 33 32 30 28 29 30 30 29 29 29 30 30 29 28 28 27 27 26 26 26 26 26 26 26 26 26 26 26
27 28 28 29 29 29 28 26 25 24 24 25 26 28 30 29 27 25 24 23 23 22 21 17 16 19 21 21 21 23 25 25 24 24 23 23 26 28 29 30 31 32 32 30 30 31 31 30 30 29 28 30 30 30 30 30 29 29 29 27 27 27 26 25 25 25 26 26 26 26 26 26 26 26
27 28 29 30 31 31 30 29 28 27 26 25 26 27 29 29 29 26 24 23 22 21 19 17 16 18 19 19 18 20 21 20 21 25 26 23 24 26 27 29 30 30 31 30 29 30 30 29 29 29 30 31 31 30 29 30 29 28 28 26 26 25 25 25 25 25 26 26 26 25 25 25 26 26
28 28 28 29 31 31 32 31 30 29 28 27 26 26 26 28 28 27 25 23 21 19 17 16 15 15 16 18 18 18 22 25 26 27 25 22 22 24 25 25 27 29 29 29 28 29 30 29 28 29 30 31 30 29 28 28 28 28 26 25 25 24 24 24 25 25 25 26 25 24 24 25 25 26
28 28 29 29 30 31 31 30 30 29 29 29 29 27 26 27 27 26 25 24 23 20 16 16 16 12 12 18 22 23 26 29 26 23 23 22 20 18 17 18 23 28 27 26 27 29 29 29 28 28 30 31 30 29 29 28 27 27 26 25 24 24 25 25 25 25 25 25 25 24 24 24 24 25
27 28 30 30 30 30 30 30 30 30 30 31 30 29 28 28 28 26 24 23 24 22 18 18 18 15 14 20 25 25 25 25 23 22 24 23 19 16 13 12 17 25 29 27 25 26 27 27 29 29 30 31 30 30 32 31 30 29 29 27 25 24 24 25 24 24 25 25 24 24 24 24 24 24
28 28 28 30 31 31 31 31 31 30 30 30 30 30 30 30 30 29 27 25 25 24 21 19 20 20 20 21 24 25 24 23 23 23 22 22 21 20 18 16 16 21 27 27 23 23 25 25 27 30 30 31 30 30 31 31 30 30 28 27 25 23 23 24 24 23 23 23 23 22 22 23 23 23
28 28 28 29 30 31 31 31 31 30 30 29 30 30 31 31 31 31 31 30 30 30 27 24 23 25 25 22 24 27 26 24 24 22 22 23 23 22 22 23 20 17 21 26 23 20 22 23 26 30 30 29 29 30 30 29 28 27 25 23 23 23 23 23 23 22 22 21 21 21 22 22 22 23
29 30 30 30 30 31 31 31 31 31 30 29 29 30 30 31 31 31 31 32 33 33 32 29 29 30 29 26 26 27 26 26 26 26 25 25 24 24 24 23 19 15 19 25 22 17 19 23 26 29 28 27 28 28 28 27 25 23 22 21 21 21 22 22 21 21 21 21 21 21 22 22 22 23
31 32 33 33 33 32 32 32 32 31 30 29 28 28 29 30 31 32 33 34 34 32 32 32 31 31 32 31 28 26 27 28 29 30 30 29 27 25 21 18 17 18 19 23 21 15 17 23 25 27 28 26 27 27 26 26 25 23 21 20 21 20 20 21 21 21 21 20 20 21 21 22 22 23
29 31 32 33 33 33 33 33 32 31 31 29 28 28 28 28 29 31 32 32 32 32 31 32 33 31 31 31 30 30 30 30 31 30 27 26 25 21 16 14 17 19 21 25 25 17 14 19 24 24 23 23 25 25 25 26 26 24 22 20 20 21 20 20 20 19 19 19 19 20 21 21 21 22
24 27 30 32 33 33 34 34 33 33 32 30 29 28 28 27 28 29 30 30 30 32 32 33 35 35 33 31 30 30 30 31 31 28 23 22 23 19 12 10 13 18 21 25 26 20 13 16 21 20 18 20 23 23 24 26 25 25 25 22 20 19 18 18 19 18 18 18 18 19 19 19 20 20
21 23 26 29 32 33 35 35 35 34 33 31 30 28 27 27 27 27 28 29 29 31 32 33 34 35 35 33 31 30 31 32 32 30 27 25 25 20 14 11 11 13 19 26 27 21 15 16 19 18 13 14 21 23 23 24 24 25 26 24 22 20 20 19 17 16 16 16 15 16 17 17 17 19
22 22 23 25 29 32 35 35 35 35 35 33 31 30 27 25 26 27 28 29 29 29 30 32 32 32 33 32 31 30 30 31 32 33 32 29 27 24 19 15 11 7 13 25 28 21 16 17 19 16 10 6 12 20 22 23 24 25 26 26 25 24 23 22 20 19 18 17 18 19 19 19 18 19
22 22 22 23 26 30 33 35 34 34 36 35 32 31 29 25 26 29 30 29 30 29 30 31 31 30 29 29 29 28 28 28 31 33 32 31 31 28 22 20 17 11 12 24 30 24 18 18 19 18 14 7 5 9 15 18 20 21 22 22 21 19 19 21 22 22 22 22 23 23 23 23 22 21
23 23 23 23 24 26 29 34 35 33 35 37 34 32 32 30 29 29 29 29 30 30 30 30 29 27 27 27 27 27 27 28 30 30 31 31 31 30 26 23 22 17 13 20 30 28 20 18 19 18 17 13 7 6 9 12 14 15 15 16 16 15 16 18 20 21 22 23 23 23 23 23 22 21
23 23 23 23 23 22 23 30 35 35 34 36 36 34 34 33 31 29 28 29 29 28 28 27 26 26 27 27 27 27 28 28 29 29 30 30 30 30 30 28 27 24 19 19 27 29 24 20 21 20 18 15 11 9 9 11 12 14 16 16 15 15 16 17 18 19 20 20 21 21 21 20 19 18
23 22 21 22 21 19 18 23 30 35 34 34 35 35 34 34 32 29 27 27 27 26 25 24 24 25 27 28 28 29 29 29 29 30 30 30 30 29 29 29 28 27 24 21 22 25 24 21 22 23 21 17 12 8 9 12 13 14 15 15 14 15 16 16 17 17 18 19 20 19 18 18 17 17
15 17 18 18 18 17 16 18 22 28 32 32 31 32 33 33 31 28 26 26 25 24 23 22 22 24 26 28 29 30 31 30 29 30 29 28 28 27 25 24 23 21 21 19 18 19 20 19 20 21 21 19 14 9 8 11 15 15 14 14 14 14 15 15 15 16 16 16 17 16 16 17 17 17
7 10 13 15 15 15 15 16 17 19 24 28 29 29 29 28 27 26 26 25 24 22 21 21 21 22 24 26 28 30 31 30 29 28 27 24 23 23 21 19 18 17 17 17 17 18 19 18 17 18 19 18 17 16 14 13 14 15 15 15 14 14 14 15 15 13 13 13 14 15 16 17 17 18
4 7 9 11 13 14 15 15 16 15 18 22 24 23 23 24 26 26 26 25 23 22 20 20 20 21 22 24 27 29 30 29 29 28 26 24 22 21 21 19 17 16 15 15 16 17 17 17 16 17 18 17 18 20 19 17 17 18 17 17 16 14 12 12 11 10 10 12 13 15 16 18 19 19
3 2 2 4 7 10 11 14 15 14 14 16 18 19 21 24 25 25 26 25 24 22 21 21 21 22 23 25 27 28 29 29 29 28 28 26 23 22 21 19 16 15 15 15 15 15 16 16 16 17 18 18 19 21 20 19 20 22 20 18 17 15 12 11 12 12 12 13 15 17 18 19 20 21
10 11 12 12 13 14 14 14 15 15 16 17 20 21 21 21 21 21 21 21 20 21 22 22 22 23 24 25 27 28 28 28 28 27 27 26 24 22 19 16 14 13 13 13 15 16 15 15 16 16 16 17 18 18 17 18 21 23 21 19 19 18 18 17 16 14 12 13 17 19 20 21 21 22
12 14 15 16 16 17 19 19 19 20 20 19 19 19 19 20 19 19 19 19 19 20 22 24 24 24 24 25 26 27 26 26 26 26 25 24 22 20 17 15 14 15 15 14 15 15 15 14 14 13 13 13 13 14 15 17 20 23 23 21 20 20 19 18 16 14 13 15 19 21 22 23 23 22
12 14 15 14 14 15 17 17 17 18 19 19 18 17 18 19 19 18 18 20 21 22 23 24 25 26 26 25 25 26 25 25 24 23 22 21 20 19 17 16 15 15 16 16 16 16 15 15 13 12 12 12 14 16 17 19 21 22 21 20 21 21 20 18 16 15 15 16 18 21 24 27 26 24
12 13 13 13 12 13 14 14 14 16 17 18 18 18 17 17 18 18 18 19 21 22 23 24 25 26 26 26 26 26 26 25 24 21 20 19 19 18 18 18 17 16 17 18 18 17 16 15 14 12 10 9 9 13 17 21 23 23 22 21 21 21 20 17 16 16 16 17 18 21 23 26 27 25
12 12 12 12 11 12 13 13 14 15 16 17 18 18 17 16 15 16 17 18 20 22 23 24 24 24 25 26 26 26 26 25 23 20 19 18 18 18 18 18 17 17 18 19 19 17 16 15 15 13 8 4 3 5 9 14 17 19 19 20 19 18 18 17 17 18 20 20 21 22 22 24 26 26
12 11 12 11 10 12 12 12 13 14 15 16 16 16 17 16 14 15 16 18 19 21 22 23 24 23 23 24 24 23 24 24 23 21 20 19 19 18 17 17 16 17 18 18 18 17 16 15 16 15 9 4 3 4 5 8 12 14 16 19 19 17 17 17 19 21 23 24 25 25 24 26 28 28
10 10 11 11 10 12 12 13 14 14 14 15 15 15 16 15 14 14 16 18 19 20 21 22 23 23 23 24 24 23 22 21 21 21 21 20 20 19 18 17 17 17 18 17 16 16 16 15 16 17 12 6 3 4 4 5 8 11 12 15 17 17 18 19 21 25 27 26 25 26 25 27 30 30
7 8 9 9 10 11 12 13 14 14 15 15 15 15 14 14 14 15 16 17 19 19 20 22 23 23 24 25 25 24 23 21 21 21 22 23 22 22 20 19 18 17 17 16 16 16 16 16 17 19 18 14 10 8 7 7 10 12 12 14 16 19 22 23 24 26 27 26 26 26 26 27 29 30
5 6 7 8 9 10 11 12 13 14 14 14 14 13 12 13 14 15 16 17 18 19 20 21 22 24 24 24 24 24 23 23 23 23 24 24 23 22 21 20 19 18 17 17 17 17 19 20 20 19 19 17 15 14 14 14 17 21 22 20 19 21 22 23 24 25 25 24 23 23 24 25 26 27
3 4 5 6 7 8 10 11 12 13 14 13 12 11 11 11 13 14 16 17 18 19 20 21 22 23 23 24 24 24 23 22 22 23 23 23 23 22 21 20 19 18 17 16 17 20 21 20 18 16 15 15 14 12 10 9 13 20 24 22 18 17 17 18 20 23 24 24 22 22 23 23 24 26
2 3 4 4 5 7 9 10 11 12 12 12 11 10 10 10 11 13 15 16 17 18 19 20 21 22 22 23 24 24 23 23 23 23 23 23 22 21 20 20 19 20 19 18 20 21 20 16 14 14 14 15 14 10 7 7 10 16 22 23 21 19 18 18 19 20 22 23 23 21 20 18 14 14
0 1 3 3 4 6 7 9 10 11 11 11 11 10 10 10 11 13 15 16 17 18 18 19 20 21 22 23 23 24 24 24 25 24 24 24 24 23 22 23 23 22 22 22 20 18 15 13 13 14 14 15 15 13 12 14 16 19 23 26 27 26 24 22 21 21 21 23 24 24 24 21 15 12
0 1 2 3 3 4 5 7 9 10 11 11 11 11 11 11 12 13 15 17 18 18 19 19 20 21 22 22 23 24 24 24 25 25 25 25 25 25 24 24 24 23 23 22 19 16 15 14 14 15 16 17 17 17 18 19 19 20 23 25 26 27 27 26 25 24 24 24 24 25 27 28 28 27
1 1 1 2 3 4 4 6 7 9 10 11 12 12 12 12 12 14 15 17 18 19 19 20 20 21 22 23 23 25 25 24 23 24 24 24 24 24 23 23 22 21 22 21 19 18 17 16 15 16 18 19 18 19 21 21 20 21 23 23 24 26 27 26 26 27 28 29 27 23 23 25 27 29
Wind_Direction
241 239 238 237 240 246 246 244 241 235 228 223 221 218 214 215 217 220 227 224 232 232 225 228 234 232 230 231 232 233 235 236 236 236 237 239 240 240 238 233 228 225 226 227 227 227 226 225 225 226 225 226 228 230 231 230 230 232 235 234 229 223 222 224 228 232 235 236 238 240 242 241 244 247
241 239 239 239 240 244 244 243 242 239 235 229 226 225 222 221 220 222 237 232 223 219 222 228 232 231 230 229 229 231 234 236 236 236 237 238 240 240 239 235 229 225 225 226 226 225 225 224 223 225 228 228 228 229 231 233 233 232 233 234 232 224 218 217 221 229 237 239 241 243 242 241 249 252
241 242 243 243 245 248 246 245 243 239 238 234 231 230 227 224 224 224 232 247 230 217 219 229 232 233 234 232 230 231 234 235 236 236 237 237 238 239 238 236 231 226 224 225 225 224 225 225 223 223 226 229 229 229 229 232 234 234 233 233 233 229 224 221 220 223 229 233 238 241 240 241 250 251
244 244 246 247 248 250 248 245 243 239 236 235 233 232 230 227 226 225 227 244 242 226 226 234 235 235 237 235 231 231 232 234 234 235 236 236 236 237 237 236 232 228 225 225 225 225 224 224 224 223 224 226 227 226 226 227 230 232 233 234 234 235 236 236 234 231 231 233 235 238 238 240 245 244
244 244 247 250 252 252 248 244 241 237 234 232 231 231 231 229 227 226 224 232 246 235 227 232 236 235 233 232 232 230 227 229 230 231 233 234 233 235 236 235 233 230 227 224 224 225 225 225 225 224 223 224 225 225 224 225 226 229 231 233 234 237 239 239 238 237 237 237 238 239 239 240 242 241
245 245 245 249 252 251 249 246 242 236 231 229 228 228 228 228 229 227 224 227 240 236 221 222 227 228 226 226 230 228 225 226 227 225 227 230 232 234 235 235 235 233 229 225 223 224 226 226 226 227 225 224 224 225 225 225 225 225 228 229 230 232 234 235 236 237 237 238 239 240 241 242 242 243
249 246 243 244 246 247 247 248 245 240 234 229 227 227 227 226 228 229 225 225 231 236 226 218 215 217 220 223 227 228 228 227 225 223 224 226 229 231 233 234 235 234 230 227 225 224 226 227 228 229 228 226 225 224 224 225 225 225 226 228 229 231 232 234 235 237 238 239 240 241 242 243 243 244
250 245 241 241 243 242 241 242 242 241 238 234 229 228 227 225 227 228 227 226 228 234 232 218 213 214 216 220 223 225 224 223 223 222 221 223 226 228 230 232 234 234 232 228 226 226 226 226 228 230 231 229 228 226 224 225 226 227 227 227 229 231 233 234 236 238 239 239 241 242 243 244 244 245
247 243 240 240 240 238 236 237 236 236 237 237 233 229 227 225 224 225 225 225 228 231 232 221 211 210 213 216 218 219 216 214 217 219 219 220 223 225 227 230 232 233 232 229 226 227 228 228 228 230 232 231 229 228 226 225 226 227 228 228 230 231 234 236 237 239 239 240 241 242 243 244 245 246
244 241 239 239 238 235 233 234 235 234 234 235 234 231 228 225 223 221 220 222 224 227 231 225 208 202 206 208 211 214 212 208 207 210 214 219 222 222 222 225 228 230 231 229 226 225 228 230 230 229 230 231 230 229 229 228 228 228 228 229 231 232 234 236 238 239 239 240 241 242 244 245 246 247
242 240 239 239 237 235 235 235 236 235 234 234 234 233 230 225 221 217 215 216 218 222 227 222 207 202 204 205 207 211 211 209 208 205 205 212 218 219 219 220 224 227 229 230 228 226 227 230 231 228 225 227 229 230 231 231 231 231 231 231 230 231 232 234 237 240 241 242 243 243 245 246 246 247
243 241 241 239 238 237 238 239 239 238 235 232 232 234 232 225 218 214 211 210 212 217 221 219 207 200 200 201 203 204 201 202 210 211 208 209 212 214 217 220 222 224 227 228 228 227 226 227 228 224 220 222 225 228 231 233 234 235 234 233 231 231 232 234 235 238 240 243 244 244 245 246 247 247
248 246 243 241 240 239 239 240 241 242 239 235 232 233 232 226 218 210 207 205 206 209 216 217 206 194 194 195 190 189 192 199 209 212 211 214 215 213 215 219 220 222 224 225 225 226 224 223 223 221 220 221 223 226 229 232 234 236 236 236 236 235 236 237 238 239 241 242 243 244 244 245 247 248
251 250 247 245 243 242 241 240 240 241 240 238 237 235 233 229 221 210 203 200 201 203 207 212 205 192 195 198 193 194 201 205 207 205 204 211 213 205 208 221 224 222 221 220 223 225 223 221 221 223 225 226 226 228 229 229 232 235 234 235 237 240 240 241 240 240 241 241 242 242 244 245 246 248
251 250 248 246 244 241 240 240 239 240 239 238 238 237 234 231 226 217 208 201 200 201 203 209 207 201 205 206 202 204 206 205 204 203 203 207 202 191 198 220 225 222 218 216 220 225 224 221 222 225 227 229 230 232 233 232 234 236 237 237 238 240 241 241 241 240 240 241 241 242 243 244 245 247
251 250 247 245 243 241 240 240 238 237 237 237 237 236 234 232 229 226 220 212 207 204 205 206 207 209 211 208 205 208 209 204 204 205 204 205 201 198 205 216 222 222 216 211 217 227 225 221 223 226 228 230 232 235 237 238 238 240 241 241 239 240 241 241 241 241 240 240 241 241 242 244 245 247
249 248 246 244 243 242 241 239 237 234 233 234 235 234 233 230 229 228 226 224 220 216 212 209 210 214 214 208 208 214 213 206 202 203 204 206 205 206 212 218 221 221 213 207 212 226 226 222 225 229 231 232 234 238 240 241 242 242 241 240 241 242 242 242 241 242 242 243 244 244 245 246 246 248
245 243 242 241 240 240 238 236 234 233 231 230 230 230 228 227 228 228 227 226 225 222 218 216 216 218 216 214 216 218 217 212 208 206 207 209 209 212 218 223 222 219 214 208 208 222 228 222 225 232 234 235 238 240 241 240 239 237 237 240 243 242 241 241 242 244 245 247 248 248 247 247 248 249
242 239 237 237 237 236 235 233 231 229 228 226 224 224 224 225 226 227 228 226 224 222 221 221 223 222 221 221 221 221 222 224 223 221 220 218 215 213 216 219 216 214 215 208 203 215 226 219 222 232 236 237 239 239 239 237 234 234 238 241 241 241 243 244 246 247 249 250 251 251 250 250 250 250
250 243 236 233 234 234 234 232 229 226 224 221 221 222 223 224 224 224 226 226 224 224 225 227 229 228 227 226 224 222 225 230 228 223 219 216 209 203 202 204 204 205 206 204 203 209 218 212 216 226 230 230 233 233 233 233 233 235 237 239 241 244 245 247 247 249 251 252 252 252 252 252 253 253
259 253 244 236 231 230 233 232 228 223 219 217 218 220 221 221 222 222 223 224 225 227 229 231 231 231 230 229 226 224 226 229 222 208 200 201 197 193 196 201 197 197 199 200 202 206 207 204 207 213 217 222 226 230 232 233 235 237 238 239 243 246 246 248 250 251 253 253 253 254 254 255 257 257
261 256 250 243 233 228 230 232 229 223 217 214 214 215 216 217 220 221 222 222 224 228 229 230 230 230 231 230 229 228 228 227 219 207 203 201 195 192 203 199 184 192 202 200 200 203 206 203 201 202 209 225 232 234 237 240 239 239 238 237 237 239 242 246 247 247 248 247 249 253 257 260 262 260
258 252 249 246 240 233 230 229 227 222 217 213 210 211 212 216 219 221 221 220 220 222 225 226 227 228 228 227 225 224 223 222 220 217 214 206 196 197 204 191 166 177 209 202 198 199 203 201 199 198 197 225 244 239 240 242 241 240 240 239 238 240 242 242 238 233 231 235 244 252 255 257 259 259
255 247 243 242 242 239 233 228 225 221 217 215 213 211 212 215 219 221 220 218 218 217 219 221 222 221 221 220 218 216 214 214 217 218 215 208 204 203 200 189 186 201 214 201 197 199 201 199 199 202 204 211 241 234 231 234 236 238 239 237 234 235 237 238 236 234 238 246 253 255 255 255 256 257
251 242 237 236 239 241 237 229 223 220 218 216 214 213 215 219 222 220 218 217 216 215 215 216 216 215 214 213 212 211 209 208 211 212 212 211 210 207 202 196 197 205 211 202 200 200 195 191 194 200 206 214 221 217 222 230 231 229 228 228 229 231 237 240 243 246 251 256 256 255 256 258 256 253
246 237 233 233 236 240 240 230 221 218 219 218 216 216 219 223 224 221 217 216 214 213 212 210 206 205 204 202 202 204 204 205 206 207 209 211 212 212 211 209 206 207 208 202 200 201 199 196 198 198 197 204 214 222 231 240 240 234 234 238 241 243 244 246 249 253 257 259 259 258 258 257 253 250
243 233 229 232 235 238 241 234 222 217 218 219 218 218 220 224 224 220 214 210 208 206 205 201 196 194 193 192 193 196 199 201 203 203 204 208 210 210 212 212 213 213 210 200 196 201 204 203 204 204 201 197 197 211 234 242 244 242 240 241 242 243 248 252 255 257 260 264 265 263 259 255 252 252
243 229 228 234 238 236 237 240 231 220 216 217 220 221 222 223 222 214 204 200 198 195 192 190 188 188 188 188 188 191 195 196 196 195 196 200 203 203 205 207 208 209 207 201 196 198 201 202 202 205 207 203 198 203 227 239 243 244 245 249 249 249 253 259 262 261 261 264 265 265 265 265 264 265
256 240 240 242 241 235 231 234 237 230 219 217 220 224 223 216 207 199 194 191 187 184 184 184 183 183 185 186 187 188 189 187 184 184 184 186 189 193 195 194 193 195 197 198 198 197 202 207 207 206 210 212 214 219 226 236 245 249 251 256 260 259 260 263 263 262 261 262 266 270 273 276 278 279
260 249 249 245 240 236 229 222 226 233 227 218 216 214 206 196 191 190 189 185 181 180 179 179 176 176 178 181 181 181 179 176 175 177 177 175 176 180 182 177 175 180 184 189 196 201 207 215 218 213 213 216 222 228 232 240 251 257 257 259 264 268 268 264 259 260 268 273 276 278 278 279 280 281
102 133 180 210 213 214 211 206 206 208 204 195 184 177 177 180 184 187 187 184 181 177 173 170 169 170 172 172 171 170 169 170 172 177 177 174 171 175 178 174 171 178 188 194 201 208 214 219 221 221 220 220 224 232 237 242 251 258 260 260 261 263 266 266 266 272 281 285 283 279 276 277 278 280
97 102 106 109 120 131 137 142 146 146 146 146 147 152 161 167 170 172 174 173 171 169 167 165 164 164 165 164 163 164 166 167 169 173 176 175 174 176 178 177 176 181 191 199 205 211 215 218 220 223 226 227 230 235 236 238 247 255 259 261 263 266 269 272 275 279 282 284 283 281 278 277 277 278
95 91 91 93 98 106 109 109 112 117 121 126 134 143 150 152 153 157 160 161 162 166 168 165 162 160 160 160 161 161 162 164 167 170 174 176 177 179 183 187 188 188 189 194 201 204 204 204 205 209 215 223 232 234 233 237 246 253 257 261 265 270 273 274 275 278 280 281 283 284 281 280 279 279
87 80 75 75 80 91 99 102 107 115 121 123 126 132 139 145 148 153 159 164 166 169 170 167 165 163 160 159 160 160 160 162 165 169 175 180 182 185 187 188 190 193 192 191 191 190 190 189 191 198 207 219 231 235 234 238 248 255 260 265 267 270 274 277 277 278 278 277 279 280 280 281 282 282
79 79 77 74 78 89 96 101 110 118 123 125 126 128 132 141 149 154 161 167 168 168 168 167 166 166 165 164 164 164 164 165 166 170 177 183 186 190 190 190 192 193 191 187 184 184 187 188 188 193 205 221 240 248 244 243 249 256 260 264 267 269 272 277 279 279 277 274 271 272 274 278 282 285
77 82 86 84 87 97 101 106 116 123 126 129 132 134 134 138 150 159 165 169 171 170 169 168 168 169 169 168 168 169 169 167 168 172 178 183 186 189 192 195 196 194 190 186 184 183 187 191 191 188 188 194 234 265 256 245 244 248 252 257 264 268 273 280 283 280 279 278 274 271 271 274 280 286
87 90 94 94 99 107 110 116 123 126 130 133 136 139 141 144 154 163 167 172 174 173 173 173 172 172 172 171 169 170 172 172 173 176 179 183 186 188 191 195 197 195 192 187 185 187 190 193 195 193 184 172 203 244 262 253 242 240 243 249 258 267 276 283 284 282 282 283 282 280 278 276 280 287
102 104 106 108 116 121 126 132 134 133 137 140 141 144 147 152 159 165 170 174 175 175 175 176 175 175 176 175 173 172 174 176 178 180 182 184 186 189 193 195 195 195 192 188 188 194 198 200 202 201 192 180 201 234 247 247 241 239 240 246 257 269 275 276 277 280 283 284 284 284 283 281 283 290
109 118 121 125 133 137 140 144 146 145 147 149 152 153 157 161 165 169 173 176 178 179 179 179 180 181 181 181 181 180 179 180 181 183 186 189 191 194 196 197 195 193 193 193 195 199 205 210 213 212 209 209 221 235 242 250 255 254 244 239 248 260 267 268 270 274 278 280 283 286 287 286 288 291
110 126 135 142 148 152 152 153 155 156 156 159 163 166 170 175 177 178 180 182 182 183 184 184 185 185 185 186 187 186 185 188 190 190 192 194 196 198 198 199 198 196 196 199 203 207 214 220 222 224 228 232 239 249 259 268 270 266 260 254 254 259 264 268 269 270 273 278 282 285 287 289 291 293
113 131 148 158 163 167 167 165 165 166 166 168 172 177 182 187 188 188 189 189 189 189 189 189 190 190 190 191 191 191 190 191 193 195 196 197 199 202 202 202 201 198 198 204 210 216 222 227 231 234 236 237 239 247 261 270 269 268 269 270 270 267 264 263 263 264 269 275 278 279 281 284 287 289
106 135 154 169 178 180 180 179 177 177 178 178 181 185 189 192 194 195 194 194 194 195 195 195 195 196 197 197 198 198 197 195 195 198 200 200 200 201 203 204 204 203 205 212 220 225 229 233 233 227 224 226 227 231 241 247 253 265 273 278 282 282 276 269 265 263 266 269 269 270 274 281 287 287
62 159 168 179 188 191 192 192 191 190 191 190 191 194 197 199 202 203 201 199 199 200 201 202 202 202 203 204 204 204 202 201 200 200 201 203 204 203 205 210 212 213 216 221 227 232 234 231 225 219 221 229 230 228 236 249 257 266 275 281 286 289 288 285 281 276 270 265 262 259 259 261 261 260
346 230 194 190 198 202 202 201 202 203 204 203 201 203 206 209 212 212 209 208 206 207 208 209 208 208 208 207 205 204 205 206 207 207 207 208 209 210 212 216 218 221 225 229 233 235 235 233 231 231 235 241 240 236 241 252 259 264 269 275 280 284 286 289 289 287 281 272 265 261 259 256 254 257
314 271 218 209 212 211 211 213 213 214 216 215 214 213 214 216 218 217 214 213 212 212 212 212 212 211 210 208 206 207 209 211 212 213 213 214 215 217 220 222 224 226 230 233 235 238 240 241 241 242 245 247 247 244 245 250 256 261 266 270 273 277 283 288 290 289 285 281 278 275 270 263 258 260